Regional Weather Roundup
Issued by NWS Midland/Odessa, TX

Home | Current Version | Previous Version | Text Only | Print | Product List | Glossary On
Versions: 1 2 3 4 5 6 7 8 9 10 11 12 13 14 15 16 17 18 19 20 21 22 23 24 25 26 27 28 29 30 31 32 33 34 35 36 37 38 39 40 41 42 43 44 45 46 47 48 49 50
000
ASUS44 KMAF 020910
RWRMAF
MIDLAND AREA WEATHER ROUNDUP
NATIONAL WEATHER SERVICE MIDLAND TX
400 AM CDT SAT AUG 02 2014

...IN SOUTHWEST TEXAS AND SOUTHEAST NEW MEXICO...

CITY           SKY/WX    TMP DP  RH WIND       PRES   REMARKS
ALPINE         PTCLDY    63  59  87 S3        30.25S
ANDREWS        FAIR      72  51  48 E3        30.15F
ARTESIA        CLOUDY    68  66  94 NW6       30.17F
BIG SPRING     PTCLDY    74  54  49 E6        30.14S
CARLSBAD       CLOUDY    70  66  87 W7        30.14F
DRYDEN           N/A     80  59  48 N9        30.04F
FORT STOCKTON  CLOUDY    72  62  71 E5        30.13S
GUAD PASS      CLOUDY    63  57  81 NE20      30.25R
HOBBS          CLOUDY    72  50  46 E8        30.18S
MARFA          MOCLDY    63  59  88 NE3       30.23S
MIDLAND AIRPK  CLOUDY    72  55  55 CALM      30.14S
MIDLAND INTL   MOCLDY    73  54  51 E3        30.12F
ODESSA         LGT RAIN  72  57  59 E5        30.14S
PECOS          MOCLDY    75  60  60 NE5       30.10S
PRESIDIO       CLOUDY    77  61  56 NE10      30.07F
SEMINOLE       MOCLDY    71  51  49 CALM      30.17F
SNYDER         PTCLDY    71  59  64 E6        30.13S
WINK           CLOUDY    76  64  66 E5        30.10F
$$
...OTHER STATIONS IN TEXAS...

CITY           SKY/WX    TMP DP  RH WIND       PRES   REMARKS
ABILENE        PTCLDY    67  62  84 SE3       30.11S
AMARILLO       CLEAR     61  52  72 SW7       30.21S
AUSTIN         CLEAR     68  65  90 N3        30.03S
BROWNSVILLE    MOCLDY    78  76  93 S3        29.94S
CORPUS CHRISTI MOCLDY    81  77  88 S7        29.94F
DALLAS FTW     PTCLDY    69  65  86 N5        30.05S
DEL RIO        MOCLDY    81  63  54 E13       29.99R
EL PASO        CLOUDY    71  60  68 E9        30.14S
HOUSTON INT    PTCLDY    72  69  90 CALM      29.98S
LUBBOCK        CLOUDY    69  53  56 E5        30.17F
SAN ANGELO     PTCLDY    72  59  63 NE7       30.09S
SAN ANTONIO    PTCLDY    75  67  76 NE6       30.03S
WACO           CLOUDY    72  66  81 N5        30.04R
WICHITA FALLS  NOT AVBL
$$
...OTHER LOCATIONS IN NEW MEXICO...

CITY           SKY/WX    TMP DP  RH WIND       PRES   REMARKS
ALAMAGORDO     MOCLDY    68  63  83 N6        30.18F
ALBUQUERQUE    LGT RAIN  63  58  83 E14       30.27F
CANNON AFB     CLOUDY    65  49  56 NE5       30.24S
CLOVIS         NOT AVBL
HOLLOMAN AFB   CLOUDY    68  66  94 NE5       30.16F
ROSWELL        CLOUDY    71  65  81 N5        30.18S
RUIDOSO        CLOUDY    57  55  94 CALM      30.37F
SANTA FE       CLOUDY    59  56  89 SE6       30.35S
TRUTH OR CONSE CLOUDY    69  60  73 SE5       30.21S
TUCUMCARI      MOCLDY    68  51  54 NW3       30.22S
$$



USA.gov is the U.S. government's official web portal to all federal, state and local government web resources and services.